Location: Fort Worth, Tx
(32.7431°N, 97.3695°W)
Time: 11:07:20
(UTC-04:00)

A-11 Canister half - Pass Details

Date: 18 August 2024
Orbit: 1524 x 1684 km, 47.3° (Epoch: 13 September)

Event Time Altitude Azimuth Distance (km) Brightness Sun altitude
Rises 05:14:25 0° 306° (NW) 4,940 11.6 -30.3°
Reaches altitude 10° 05:17:42 10° 310° (NW) 3,948 11.1 -29.8°
Maximum altitude 05:27:44 61° 30° (NNE) 1,848 9.5 -28.2°
Drops below altitude 10° 05:37:31 10° 110° (ESE) 3,856 11.5 -26.6°
Sets 05:40:40 0° 113° (ESE) 4,820 12.0 -26.1°
